Reflectivity
-20 -20 -20 -20 -20 -20 -20 -20 -20 -20 -20 -20 -20 -20 -20 -20 14 16 -19 -20 -20 -20 -20 -20 -20 -20 -20 -20 -20 -20 -20 -20 -20 -20 -20 -20 -20 -20 -20 -20 -20 -20 -20
-20 -20 -20 -20 -20 -20 -20 -20 -20 -20 -20 -20 -20 -20 -12 -20 -15 1 -18 -20 6 -18 -20 -20 -20 -20 -20 -20 -20 -20 -20 -20 -20 -20 -20 -20 -20 -20 -20 -20 -20 -20 -20
-20 -20 -20 -20 -20 -20 -20 -20 -20 -20 -20 -20 -20 -20 -20 -20 -20 -20 -20 -0 4 21 -20 -6 -20 -20 -20 -20 -20 -20 -20 -20 -20 -20 -20 -20 -20 -20 -20 -20 -20 -20 -20
-20 -20 -20 -20 -20 -20 -20 -20 -20 -20 -20 -20 -20 -20 -20 -20 -20 -20 -20 -20 23 -5 -13 -20 -20 -20 -20 -20 -20 -20 -20 -20 -20 -20 -20 -20 -20 -20 -20 -20 -20 -20 -20
-20 -20 -20 -20 -20 -20 -20 -20 -20 -20 -20 -20 -20 -20 -20 -20 -20 -20 -20 -20 -20 -12 -18 -19 5 -19 -20 -20 -20 -20 -20 -20 -20 -20 -20 -20 -20 -20 -20 -20 -20 -20 -20
-20 -20 -20 -20 -20 -20 -20 -20 -20 -20 -20 -20 -20 -20 -20 -20 -20 -20 -19 -15 15 13 -20 -20 -20 -20 -20 -20 -20 -20 -20 -20 -20 -20 -20 -20 -20 -20 -20 -20 -20 -20 -20
-20 -20 -20 -20 -20 -20 -20 -20 -20 -20 -20 -20 -20 -20 -20 -20 -20 -20 -20 -20 -13 -20 -20 1 -20 -20 -20 -20 -20 -20 -20 -20 -20 -20 -20 -20 -20 -20 -20 -20 -20 -20 -20
-20 -20 -20 -20 -20 -20 -20 -20 -20 -20 -20 -20 -20 -20 -20 -20 -20 -20 17 -20 -18 4 -20 -20 -20 -20 -20 -20 -20 -20 -20 -20 -20 -20 -20 -20 -20 -20 -20 -20 -20 -20 -20
-20 -20 -20 -20 -20 -20 -20 -20 -20 -20 -20 -20 -20 -20 -20 -20 -5 19 -20 -20 -20 -20 -20 -20 -20 -20 -20 -20 -20 -20 -20 -20 -20 -20 -20 -20 -20 -20 -20 -20 -20 -20 -20
-20 -20 -20 -20 -20 -20 -20 -20 -20 -20 -20 -20 -20 -20 -20 14 -11 -6 -20 2 -20 -7 -20 -20 -20 -20 -20 -20 -20 -20 -20 -20 -20 -20 -20 -20 -20 -20 -20 -20 -20 -20 -20
-20 -20 -20 -20 -20 -20 -20 -20 -20 -20 -20 -20 -20 -20 -20 -20 -20 -16 -1 -20 19 -13 -20 -20 -20 -20 -20 -20 -20 -20 -20 -20 -20 -20 -20 -20 -20 -20 -20 -20 -20 -20 -20
-20 -20 -20 -20 -20 -20 -20 -20 -20 -20 -20 -20 -20 -20 -20 -20 -20 -19 -20 19 -19 17 -20 -20 -20 -20 -20 -20 -20 -20 -20 -20 -20 -20 -20 -20 -20 -20 -20 -20 -20 -20 -20
-20 -20 -20 -20 -20 -2 -20 -20 -20 -20 -20 -20 -20 -20 -20 -19 -17 -17 6 15 -15 -18 -20 -20 -20 -20 -20 -20 -20 -20 -20 -20 -20 -20 -20 -20 -20 -20 -20 -20 -20 -20 -20
-20 -20 -20 -20 -20 -20 -20 -20 -20 -20 -20 -20 -20 -20 -20 -20 -20 -11 -11 -10 -20 -20 -20 -20 -20 -20 -20 -20 -20 -20 -20 -20 -20 -20 -20 -20 -20 -20 -20 -20 -20 -20 -20
-20 -20 -20 -20 -20 -20 -20 -20 -20 -20 -20 -20 -20 -16 -20 -20 -9 14 -18 -20 -20 -20 -20 -1 -20 -20 -20 -20 -20 -20 -20 -20 -20 -20 -20 -20 -20 -20 -20 -20 -20 -19 -7
-20 -20 -20 -20 -20 -20 -20 -20 -20 -20 -20 -20 -20 -20 -17 -14 23 -15 26 -12 -20 9 6 -20 -20 -20 -20 -20 -20 -20 -20 -20 -20 -20 -20 -20 -20 -20 -20 -20 -20 -4 -2
-20 -20 -20 -20 -20 -20 -20 -20 -20 -20 7 -14 16 -16 -7 22 -19 -20 -20 -1 9 6 -20 -20 -20 -20 -20 -20 -20 -20 -20 -20 -20 -20 -20 -20 -20 -20 -20 -20 -20 -20 -13
-20 -20 -20 -20 -20 -20 -12 -20 8 13 -12 -8 -12 9 29 10 -9 20 13 6 -19 -17 -2 -20 -20 -20 -20 -20 -20 -20 -20 -20 -20 -20 -20 -20 -20 -20 -20 -20 -15 -8 -5
-13 -20 -20 -20 -20 1 18 19 -11 10 -3 16 18 29 17 17 9 -14 -20 -16 -16 -15 -20 -4 -16 -20 -20 -20 -20 -20 -20 -20 -20 -20 -20 -20 -20 -20 -20 3 3 5 -17
-20 -20 -19 -3 13 7 0 21 21 26 24 35 23 -11 -20 -20 -20 -20 -18 1 -20 3 -5 -20 -20 -20 -20 -20 -20 -20 -20 -20 -20 -20 -20 -20 -20 -5 -20 -0 -13 -19 -20
28 29 30 27 31 33 37 34 33 28 4 -20 -20 -20 -20 -8 9 -8 -17 4 -8 -20 -20 -20 -20 -20 -20 -20 -20 -20 -20 -20 -20 -20 -20 -20 -20 -20 8 2 -8 -20 -10
-11 7 -3 -9 -10 2 -4 -14 -20 -20 -7 5 14 8 -11 -20 -20 -16 -20 -20 -20 -20 -20 -20 -20 -20 -20 -20 -20 -20 -20 -20 -20 -20 -20 -20 -4 7 1 -7 -20 -2 1
7 11 9 -3 -4 11 21 26 24 3 -18 -20 -20 -6 -20 -20 -20 -20 -20 -20 -20 -20 -20 -20 -20 -20 -20 -20 -20 -20 -20 -20 -20 -20 -4 -0 -3 -18 -20 -20 -20 -18 -20
-4 2 2 -10 -10 -20 -20 -20 -16 -20 -20 -20 -20 -20 -20 -20 -20 -20 -20 -20 -20 -20 -20 -20 -20 -20 -20 -20 -20 -20 -20 -20 -15 -8 -8 -20 -20 -20 -20 -20 -20 -20 -20
-20 -20 -20 -20 -20 -20 -20 -20 -20 -20 -20 -20 -20 -20 -20 -20 -20 -20 -20 -20 -20 -20 -20 -20 -20 -20 -20 -20 -20 -20 -20 -1 2 0 -20 -20 -20 -20 -20 -20 -20 -20 -20
-20 -20 -20 -20 -6 -20 -20 -20 -20 -20 -20 -20 -20 -20 -20 -20 -20 -20 -20 -20 -20 -20 -20 -20 -20 -20 -20 -20 -20 -20 -1 0 -4 -20 -20 -20 -20 -20 -20 -20 -20 -20 -20
Wind_Speed
19 19 18 18 20 21 20 20 17 15 12 9 10 10 10 5 4 4 11 12 11 10 10 6 7 5 5 5 5 4 2 3 5 3 3 3 3 4 3 3 4 1 4
23 23 22 21 21 21 21 19 18 16 13 9 9 8 7 6 4 4 8 9 10 10 9 8 6 7 5 6 5 2 3 3 4 3 3 2 3 3 3 2 4 4 3
24 23 24 22 20 22 20 17 18 15 14 13 9 8 10 8 5 6 5 7 10 9 7 7 7 5 5 4 4 4 3 3 2 4 3 2 2 4 2 3 3 4 3
20 21 22 20 21 20 18 16 16 14 14 14 14 16 10 10 6 8 5 6 9 10 9 9 8 6 5 6 5 4 4 1 2 2 2 3 3 3 4 1 4 2 5
13 14 17 17 18 16 16 15 14 14 14 15 14 13 13 10 10 9 13 10 9 9 9 7 7 8 5 6 6 5 4 3 1 1 2 1 3 4 4 6 4 6 6
9 10 12 14 14 14 11 13 14 15 15 15 17 17 15 16 13 13 10 8 7 6 7 9 8 7 7 7 5 5 4 3 2 1 1 3 3 4 5 7 9 10 7
7 13 14 13 13 13 15 12 15 16 17 17 16 17 16 18 17 16 11 13 9 7 8 8 9 7 7 6 5 4 3 2 1 1 3 3 4 5 6 7 8 9 8
11 6 13 13 12 14 15 16 17 16 17 17 16 14 17 10 10 12 12 9 9 8 10 9 9 10 9 7 5 4 2 2 1 2 3 4 5 5 5 6 7 10 8
8 10 10 12 14 14 16 17 17 17 16 17 14 16 15 15 12 14 14 9 11 9 11 9 10 9 8 6 4 3 2 1 1 3 4 4 5 4 5 5 6 8 10
8 9 9 13 13 13 14 16 18 17 17 17 14 13 14 14 13 13 12 12 10 10 10 10 10 9 7 5 3 2 1 2 2 3 6 5 5 5 5 6 6 7 9
10 12 12 12 9 11 13 15 16 17 16 16 16 15 14 16 14 13 13 12 9 9 9 10 9 8 6 4 3 1 1 3 5 5 6 7 7 6 6 6 7 7 8
11 10 12 9 5 9 12 14 14 16 15 16 16 16 15 15 15 14 13 12 11 10 10 9 8 7 5 3 1 1 3 4 6 7 7 8 7 7 8 7 9 8 10
12 9 8 7 5 9 12 14 15 16 15 16 16 16 15 15 15 15 13 10 12 11 10 8 7 6 4 2 0 3 4 6 7 7 8 8 9 8 7 8 9 9 9
8 8 5 6 8 10 12 14 15 15 15 16 17 16 15 15 14 13 13 12 12 10 9 7 6 4 3 1 2 4 6 7 8 7 7 8 9 10 9 9 11 10 11
6 5 4 7 9 12 13 14 13 15 15 17 16 16 15 15 13 12 12 11 10 9 8 7 5 3 1 1 4 6 7 8 9 8 9 8 9 14 14 9 10 12 10
2 4 6 9 11 12 12 13 15 15 14 17 16 15 15 14 13 12 12 10 9 9 7 6 4 2 1 3 5 7 8 9 9 8 9 9 13 12 16 18 20 17 12
6 7 9 10 11 11 11 13 15 15 16 17 15 15 14 12 12 11 11 8 9 7 6 4 2 1 2 2 6 9 8 9 9 9 9 9 9 13 10 14 20 17 24
9 9 10 11 12 12 13 14 14 15 16 16 15 13 13 12 11 10 10 9 7 6 4 3 0 2 2 1 6 10 9 9 9 9 9 10 10 10 13 11 11 12 13
10 12 11 13 13 14 13 14 16 16 15 14 14 12 12 12 11 10 9 7 6 4 3 0 2 4 5 2 7 10 9 9 10 9 9 10 11 16 19 13 13 14 13
13 13 14 15 15 13 13 15 15 14 13 13 13 13 11 11 11 9 7 5 5 4 1 2 4 4 6 5 7 9 8 9 8 9 10 16 15 18 21 14 13 14 14
14 13 14 14 14 14 14 15 15 15 14 13 13 11 10 10 9 8 6 5 4 1 2 3 4 5 4 6 8 11 9 7 8 8 8 8 19 22 25 24 13 15 17
15 15 14 14 14 14 14 16 15 13 12 12 12 11 9 7 7 7 5 4 2 2 3 4 4 4 5 6 8 11 12 14 9 10 8 10 21 25 23 19 21 21 20
11 11 13 14 12 12 12 16 12 12 12 12 11 10 9 8 6 5 4 1 1 3 4 4 4 5 4 5 10 12 16 17 12 9 15 24 24 23 15 17 20 17 7
12 12 14 14 14 12 12 13 12 11 12 11 10 8 7 7 5 3 2 2 2 3 4 5 5 6 6 6 5 7 8 14 11 14 11 17 19 16 14 12 9 7 7
11 11 12 13 14 12 12 10 10 10 11 9 8 7 5 5 3 3 3 2 3 4 5 5 6 6 6 7 13 13 9 9 12 16 9 8 7 7 7 7 8 8 8
11 12 13 14 13 12 12 10 9 9 9 8 6 5 4 3 2 1 1 5 2 2 5 7 6 7 12 15 17 18 20 20 22 8 8 7 7 8 8 8 9 8 12
Wind_Direction
251 242 237 243 244 236 233 225 226 209 204 196 197 197 202 124 114 154 154 166 163 149 144 141 137 143 138 122 124 115 88 50 358 297 331 189 195 225 210 221 261 208 256
247 244 238 231 234 236 230 227 220 208 200 191 197 194 112 82 82 111 151 161 155 148 141 137 130 130 126 120 116 130 123 82 23 349 266 320 181 188 209 234 315 271 321
251 246 239 236 226 230 227 220 223 206 196 194 179 143 101 102 106 136 140 172 148 144 125 125 125 127 122 115 109 100 55 103 90 25 335 299 310 360 225 213 269 289 320
242 247 252 246 235 225 225 215 217 202 192 181 175 169 166 160 154 143 136 135 134 133 128 128 121 121 130 128 123 103 91 1 76 173 38 354 352 314 312 67 236 297 299
246 249 238 240 250 247 218 209 209 203 188 182 168 164 174 167 147 133 139 141 133 129 124 126 133 133 134 124 124 118 98 77 33 41 339 295 249 246 258 294 295 309 307
261 265 261 254 238 239 241 193 198 196 183 173 175 179 177 151 148 146 143 139 135 143 126 131 136 137 131 128 116 103 100 83 67 3 307 303 308 317 301 296 303 303 296
288 289 274 252 237 224 223 194 201 193 175 180 186 186 155 162 158 149 145 143 137 147 156 136 143 138 126 124 122 120 131 119 355 329 313 302 284 297 291 291 293 295 300
262 273 300 267 243 222 211 194 197 189 178 181 180 175 148 158 154 151 152 146 146 140 143 151 135 136 133 130 129 134 137 131 259 286 295 298 292 291 290 292 300 296 286
252 284 304 287 247 223 214 196 193 182 175 173 172 146 155 153 153 146 140 138 142 140 137 137 139 135 132 134 141 142 170 229 253 292 270 272 281 285 287 287 285 289 296
278 308 320 305 251 227 202 197 189 172 169 163 141 147 147 140 131 128 123 121 119 138 138 138 136 135 133 135 142 154 147 284 285 274 288 289 290 297 292 283 282 280 284
303 320 322 305 257 219 192 183 176 161 157 142 140 140 138 138 127 123 117 117 135 133 135 138 137 137 137 138 157 140 270 269 281 279 277 286 291 285 290 291 288 284 285
304 319 317 299 233 197 176 165 154 155 145 130 134 136 139 132 125 123 123 137 135 137 136 135 133 130 128 133 151 259 261 278 286 288 289 288 292 294 291 288 288 288 288
307 329 311 272 192 169 165 152 147 144 133 132 130 135 134 128 122 119 129 132 128 132 128 128 130 129 123 132 254 289 292 287 285 288 287 293 295 292 293 294 295 292 291
318 318 293 236 177 162 152 146 135 136 136 131 131 130 125 122 124 126 129 130 128 131 126 120 116 115 125 104 305 296 291 287 289 289 285 284 288 290 299 307 301 297 302
290 281 241 204 163 155 138 126 131 135 135 127 126 122 116 116 114 121 122 121 124 118 119 119 118 118 123 6 337 312 303 298 297 296 291 288 295 297 286 286 290 298 300
257 210 195 177 142 120 130 130 134 130 122 120 114 111 110 117 120 121 119 118 112 118 121 113 110 111 287 65 311 306 304 302 298 297 301 303 301 294 301 295 297 296 300
171 177 171 149 133 134 133 133 130 119 114 105 107 109 114 120 117 123 114 122 116 121 115 119 112 287 290 67 315 309 299 300 292 299 297 298 301 308 302 303 300 310 298
143 152 132 136 127 126 125 126 118 114 107 108 106 111 118 117 123 116 119 117 118 120 128 120 317 296 282 172 307 311 297 296 296 293 294 298 296 299 301 301 299 293 286
131 116 126 124 114 119 121 117 109 105 102 104 109 120 123 122 121 117 116 113 120 122 105 66 294 292 304 128 318 320 312 304 299 298 302 301 300 301 307 307 306 300 301
106 120 115 109 114 103 108 105 101 101 106 123 123 119 116 117 113 108 107 103 96 98 95 290 286 292 283 312 326 325 311 308 312 312 312 305 307 310 314 312 307 306 309
110 110 111 109 119 128 131 121 119 114 112 115 110 105 99 99 105 112 107 102 92 85 285 285 290 299 309 315 314 313 315 313 315 304 304 308 314 314 312 313 312 304 304
98 101 105 107 110 115 112 107 104 108 104 100 97 98 101 105 100 97 90 87 54 296 296 307 317 327 322 324 318 318 310 303 301 302 306 307 305 309 313 317 306 307 308
92 95 102 104 100 97 103 103 103 106 104 101 103 104 103 99 97 98 102 143 327 326 330 321 324 319 336 323 321 320 319 318 312 309 306 312 315 315 315 306 309 312 300
117 120 109 99 94 93 95 101 108 108 108 108 108 106 101 102 98 99 83 336 350 339 330 333 331 332 324 325 342 325 317 313 319 312 304 314 311 313 313 316 315 311 308
112 108 104 105 105 100 96 100 107 110 105 104 103 100 102 98 102 67 23 351 55 16 340 335 329 321 322 325 322 318 312 309 311 320 319 306 317 320 316 316 315 312 311
108 103 105 105 103 103 101 102 103 106 110 107 105 99 102 89 66 14 52 172 182 306 313 318 317 319 313 324 322 315 313 321 323 322 307 319 320 316 315 315 312 305 304